1512417600.0,18550,4.0,72684.0,-14.91,-16.37,-16.41,0,*65
1512417601.25,18551,4.0,72688.8,-14.91,-16.41,-16.41,0,*65
1512417602.49,18552,4.0,72692.5,-14.91,-16.41,-16.37,0,*67
1512417603.72,18553,4.0,72684.3,-14.93,-16.37,-16.41,0,*64
1512417604.99,18554,4.0,72694.0,-14.93,-16.55,-16.51,0,*66
1512417606.25,18555,4.0,72694.5,-14.93,-16.55,-16.65,0,*60
1512417607.52,18556,4.0,72696.5,-14.91,-16.55,-16.65,0,*61
1512417608.8,18557,4.0,72700.5,-14.93,-16.51,-16.51,0,*61
1512417610.06,18558,4.0,72704.8,-14.93,-16.51,-16.55,0,*6A
1512417611.35,18559,4.0,72708.8,-14.91,-16.65,-16.51,0,*6A
1512417612.61,18560,4.06,72708.3,-14.91,-16.51,-16.37,0,*67
1512417613.84,18561,4.0,72704.8,-14.93,-16.37,-16.41,0,*65
1512417615.08,18562,4.0,72704.3,-14.93,-16.37,-16.37,0,*67
1512417616.32,18563,4.0,72708.8,-14.91,-16.37,-16.41,0,*65
1512417617.58,18564,4.0,72708.0,-14.93,-16.37,-16.27,0,*60
1512417618.84,18565,4.0,72714.0,-14.93,-16.51,-16.41,0,*61
1512417620.08,18566,4.0,72710.3,-14.91,-16.41,-16.37,0,*60
1512417621.32,18567,4.0,72704.0,-14.93,-16.41,-16.37,0,*63
1512417622.55,18568,4.0,72702.3,-14.91,-16.37,-16.37,0,*6F
1512417623.81,18569,4.0,72704.0,-14.93,-16.37,-16.27,0,*6D
1512417625.06,18570,4.0,72706.5,-14.93,-16.41,-16.41,0,*64
1512417626.34,18571,4.0,72704.5,-14.91,-16.27,-16.27,0,*67
1512417627.58,18572,4.0,72704.8,-14.93,-16.37,-16.37,0,*66
1512417628.84,18573,4.0,72700.0,-14.91,-16.27,-16.37,0,*64
1512417630.12,18574,4.06,72708.0,-14.93,-16.27,-16.27,0,*60
1512417631.41,18575,4.0,72702.3,-14.91,-16.23,-16.27,0,*67
1512417632.69,18576,4.0,72704.0,-14.91,-16.27,-16.27,0,*60
1512417633.95,18577,4.0,72706.0,-14.93,-16.23,-16.37,0,*66
1512417635.19,18578,4.0,72704.3,-14.91,-16.37,-16.37,0,*6E
1512417636.43,18579,4.0,72702.5,-14.91,-16.37,-16.41,0,*6E
1512417637.69,18580,4.0,72706.3,-14.91,-16.27,-16.37,0,*68
1512417638.94,18581,4.0,72704.5,-14.93,-16.27,-16.37,0,*6B
1512417640.23,18582,4.06,72712.5,-14.93,-16.27,-16.27,0,*69
1512417641.51,18583,4.0,72706.0,-14.93,-16.51,-16.65,0,*6F
1512417642.75,18584,4.0,72708.0,-14.91,-16.37,-16.37,0,*6D
1512417644.03,18585,4.0,72708.3,-14.91,-16.23,-16.27,0,*68
1512417645.32,18586,4.0,72704.8,-14.91,-16.23,-16.23,0,*6F
1512417646.6,18587,4.0,72708.8,-14.91,-16.23,-16.23,0,*6E
1512417647.89,18588,4.0,72712.8,-14.91,-16.23,-16.13,0,*62
1512417649.19,18589,4.0,72708.3,-14.91,-16.13,-16.13,0,*60
1512417650.47,18590,4.0,72708.3,-14.91,-16.27,-16.23,0,*6C
1512417651.76,18591,4.0,72706.0,-14.91,-16.27,-16.23,0,*6D
1512417653.04,18592,4.0,72710.0,-14.91,-16.27,-16.13,0,*6D
1512417654.28,18593,4.0,72716.0,-14.91,-15.99,-15.99,0,*6B
1512417655.56,18594,4.0,72710.3,-14.91,-16.27,-16.13,0,*6B
1512417656.85,18595,4.0,72708.3,-14.93,-16.23,-16.23,0,*6F
1512417658.14,18596,4.0,72710.0,-14.93,-16.13,-16.13,0,*6C
1512417659.43,18597,4.0,72706.8,-14.91,-16.13,-16.13,0,*6F
1512417660.73,18598,4.0,72710.0,-14.93,-16.09,-16.09,0,*62
1512417661.99,18599,4.0,72710.8,-14.91,-16.09,-15.99,0,*6B
1512417663.28,18600,4.0,72704.8,-14.93,-16.13,-16.13,0,*60
1512417664.58,18601,4.0,72700.0,-14.91,-16.09,-16.09,0,*63
1512417665.87,18602,4.0,72702.8,-14.91,-16.23,-16.13,0,*63
1512417667.16,18603,4.0,72700.8,-14.91,-16.13,-16.13,0,*61
1512417668.45,18604,4.0,72698.0,-14.91,-16.27,-16.13,0,*61
1512417669.74,18605,4.0,72694.5,-14.91,-16.27,-16.13,0,*60
1512417671.03,18606,4.0,72694.0,-14.93,-16.13,-16.23,0,*65
1512417672.25,18607,4.0,72688.0,-14.93,-15.99,-15.99,0,*67
1512417673.55,18608,4.0,72690.5,-14.93,-16.09,-16.09,0,*68
1512417674.85,18609,4.0,72698.5,-14.91,-16.09,-16.09,0,*6B
1512417676.14,18610,4.0,72702.0,-14.91,-16.13,-16.09,0,*68
1512417677.44,18611,4.0,72700.0,-14.93,-16.13,-16.09,0,*6B
1512417678.72,18612,4.0,72700.0,-14.93,-16.23,-16.13,0,*60
1512417680.01,18613,4.0,72698.3,-14.93,-16.27,-16.13,0,*65
1512417681.29,18614,4.0,72698.8,-14.91,-16.23,-16.23,0,*67
1512417682.58,18615,4.0,72696.0,-14.91,-16.13,-16.23,0,*65
1512417683.82,18616,4.0,72694.5,-14.93,-16.41,-16.37,0,*66
1512417685.11,18617,4.0,72696.0,-14.93,-16.23,-16.27,0,*62
1512417686.39,18618,4.0,72702.0,-14.91,-16.27,-16.23,0,*6F
1512417687.68,18619,4.0,72694.5,-14.91,-16.23,-16.09,0,*62
1512417688.98,18620,4.0,72696.0,-14.91,-16.13,-16.23,0,*63
1512417690.26,18621,4.0,72704.0,-14.91,-16.23,-16.13,0,*62
1512417691.55,18622,4.0,72696.3,-14.93,-16.13,-16.23,0,*63
1512417692.84,18623,4.0,72696.3,-14.91,-16.13,-16.13,0,*63
1512417694.1,18624,4.0,72696.0,-14.93,-16.23,-15.99,0,*64
1512417695.37,18625,4.0,72712.5,-14.93,-16.09,-15.95,0,*61
1512417696.66,18626,4.0,72706.8,-14.93,-16.13,-16.13,0,*64
1512417697.95,18627,4.0,72708.5,-14.93,-16.13,-16.13,0,*65
1512417699.24,18628,4.0,72714.5,-14.91,-16.13,-16.23,0,*6B
1512417700.53,18629,4.0,72710.0,-14.93,-16.23,-16.23,0,*6B
1512417701.81,18630,4.0,72714.3,-14.93,-16.23,-16.23,0,*63
1512417703.1,18631,4.0,72712.8,-14.91,-16.23,-16.13,0,*63
1512417704.38,18632,4.0,72716.3,-14.93,-16.23,-16.13,0,*62
1512417705.68,18633,4.0,72710.8,-14.91,-16.13,-16.13,0,*62
1512417706.94,18634,4.0,72710.8,-14.91,-16.13,-15.99,0,*64
1512417708.24,18635,4.0,72706.8,-14.93,-16.13,-16.09,0,*6D
1512417709.53,18636,4.0,72704.3,-14.93,-16.09,-16.09,0,*65
1512417710.8,18637,4.0,72702.5,-14.93,-16.09,-15.99,0,*6E
1512417712.05,18638,4.0,72706.5,-14.91,-15.99,-16.13,0,*68
1512417713.28,18639,4.0,72704.8,-14.93,-15.99,-15.95,0,*66
1512417714.52,18640,4.0,72704.8,-14.93,-15.99,-15.95,0,*68
1512417715.75,18641,4.0,72704.8,-14.91,-15.99,-15.95,0,*6B
1512417716.98,18642,4.0,72712.0,-14.91,-15.99,-15.99,0,*64
1512417718.28,18643,4.0,72706.5,-14.91,-16.13,-16.09,0,*6E
1512417719.5,18644,4.0,72710.3,-14.93,-15.99,-15.99,0,*60
1512417720.77,18645,4.0,72714.3,-14.93,-16.09,-15.95,0,*67
1512417722.01,18646,4.0,72702.8,-14.93,-15.95,-15.95,0,*62
1512417723.28,18647,4.0,72702.0,-14.91,-16.09,-15.99,0,*6B
1512417724.51,18648,4.0,72706.5,-14.93,-15.95,-15.99,0,*60
1512417725.77,18649,4.0,72710.0,-14.93,-15.99,-16.09,0,*67
1512417727.03,18650,4.0,72698.5,-14.93,-15.99,-16.09,0,*6F
1512417728.29,18651,4.0,72710.5,-14.93,-15.99,-16.09,0,*6E
1512417729.58,18652,4.0,72700.3,-14.91,-16.09,-16.09,0,*65
1512417730.85,18653,4.0,72698.3,-14.93,-16.09,-15.99,0,*6C
1512417732.08,18654,4.0,72702.3,-14.91,-15.99,-15.99,0,*63
1512417733.31,18655,4.0,72700.0,-14.93,-15.99,-15.99,0,*60
1512417734.54,18656,4.0,72700.5,-14.93,-15.95,-15.99,0,*6F
1512417735.8,18657,4.0,72700.0,-14.93,-15.99,-16.09,0,*68
1512417737.03,18658,4.0,72702.5,-14.93,-15.95,-15.99,0,*61
1512417738.27,18659,4.0,72708.3,-14.91,-15.95,-15.95,0,*6E
1512417739.51,18660,4.0,72700.3,-14.91,-15.95,-15.95,0,*64
1512417740.75,18661,4.0,72698.0,-14.91,-15.95,-15.95,0,*65
1512417741.99,18662,4.0,72696.3,-14.93,-15.95,-15.95,0,*64
1512417743.26,18663,4.0,72696.3,-14.91,-15.95,-15.85,0,*66
1512417744.5,18664,4.0,72698.5,-14.91,-15.95,-15.95,0,*60
1512417745.76,18665,4.0,72698.3,-14.93,-15.85,-15.95,0,*62
1512417747.02,18666,4.0,72696.5,-14.91,-15.99,-15.85,0,*6F
1512417748.28,18667,4.0,72700.3,-14.91,-15.95,-15.85,0,*62
1512417749.55,18668,4.0,72702.5,-14.91,-15.95,-15.85,0,*6D
1512417750.78,18669,4.0,72704.0,-14.91,-15.99,-15.95,0,*61
1512417752.04,18670,4.0,72698.5,-14.91,-15.99,-16.09,0,*6F
1512417753.34,18671,4.0,72696.3,-14.91,-16.09,-16.13,0,*6F
1512417754.6,18672,4.0,72692.5,-14.93,-16.09,-15.99,0,*6F
1512417755.83,18673,4.0,72702.0,-14.91,-15.99,-15.95,0,*6A
1512417757.07,18674,4.0,72704.8,-14.91,-15.95,-15.95,0,*61
1512417758.37,18675,4.0,72700.5,-14.91,-15.85,-15.85,0,*60
1512417759.63,18676,4.0,72704.8,-14.91,-15.95,-15.85,0,*62
1512417760.89,18677,4.0,72704.8,-14.91,-15.95,-15.85,0,*63
1512417762.16,18678,4.0,72702.8,-14.91,-15.85,-15.95,0,*6C
1512417763.39,18679,4.0,72702.3,-14.91,-15.99,-15.95,0,*60
1512417764.63,18680,4.0,72702.3,-14.91,-15.99,-15.95,0,*66
1512417765.86,18681,4.0,72698.0,-14.93,-15.99,-15.95,0,*65
1512417767.16,18682,4.0,72696.8,-14.91,-16.09,-16.09,0,*68
1512417768.39,18683,4.0,72700.0,-14.91,-15.99,-15.95,0,*65
1512417769.63,18684,4.0,72702.3,-14.89,-15.95,-15.89,0,*6A
1512417770.85,18685,4.0,72710.8,-14.89,-15.95,-16.03,0,*6A
1512417772.13,18686,4.0,72708.5,-14.91,-16.23,-16.27,0,*68
1512417773.4,18687,4.0,72686.0,-14.91,-16.37,-16.27,0,*6C
1512417774.63,18688,4.0,72686.0,-14.91,-16.37,-16.37,0,*62
1512417775.89,18689,4.0,72694.0,-14.93,-16.37,-16.27,0,*60
1512417777.19,18690,4.0,72696.3,-14.91,-16.13,-16.13,0,*6B
1512417778.48,18691,4.0,72692.8,-14.91,-16.13,-16.23,0,*69
1512417779.76,18692,4.0,72688.8,-14.93,-16.23,-16.13,0,*68
1512417781.06,18693,4.0,72690.0,-14.93,-16.13,-16.13,0,*6A
1512417782.35,18694,4.0,72682.0,-14.91,-16.09,-16.13,0,*64
1512417783.64,18695,4.0,72686.8,-14.91,-16.13,-16.13,0,*6E
1512417784.94,18696,4.0,72690.8,-14.91,-16.13,-16.09,0,*66
1512417786.23,18697,4.0,72690.8,-14.93,-16.13,-16.13,0,*6E
1512417787.52,18698,4.0,72704.5,-14.91,-16.13,-16.27,0,*64
1512417788.82,18699,4.0,72700.8,-14.93,-16.13,-16.09,0,*6B
1512417790.1,18700,4.0,72704.5,-14.91,-16.23,-16.23,0,*63
1512417791.39,18701,4.0,72704.3,-14.91,-16.09,-16.13,0,*69
1512417792.69,18702,4.0,72706.3,-14.91,-16.13,-16.13,0,*61
1512417793.92,18703,4.0,72700.8,-14.91,-15.95,-15.99,0,*6C
1512417795.16,18704,4.0,72698.3,-14.91,-15.95,-15.99,0,*6B
1512417796.43,18705,4.0,72706.0,-14.91,-16.09,-15.99,0,*6C
1512417797.65,18706,4.0,72698.5,-14.93,-15.99,-15.99,0,*67
1512417798.89,18707,4.0,72694.3,-14.91,-15.95,-15.95,0,*64
1512417800.16,18708,4.0,72704.8,-14.91,-15.95,-15.85,0,*6A
1512417801.42,18709,4.0,72700.0,-14.91,-15.99,-16.09,0,*60
1512417802.72,18710,4.0,72704.0,-14.91,-16.09,-16.09,0,*62
1512417803.98,18711,4.0,72696.8,-14.93,-15.85,-15.95,0,*60
1512417805.27,18712,4.0,72698.0,-14.93,-15.85,-15.85,0,*62
1512417806.53,18713,4.0,72698.0,-14.91,-15.85,-15.95,0,*60
1512417807.77,18714,4.0,72696.0,-14.93,-15.95,-15.95,0,*64
1512417809.01,18715,4.0,72690.5,-14.93,-15.95,-15.95,0,*65
1512417810.3,18716,4.0,72690.8,-14.91,-15.85,-15.85,0,*64
1512417811.56,18717,4.0,72690.5,-14.93,-15.95,-15.85,0,*66
1512417812.8,18718,4.0,72692.0,-14.93,-15.95,-15.99,0,*64
1512417814.07,18719,4.0,72690.0,-14.91,-15.95,-16.09,0,*6D
1512417815.3,18720,4.0,72690.8,-14.91,-15.95,-15.99,0,*6D
1512417816.57,18721,4.0,72698.3,-14.93,-16.09,-15.99,0,*68
1512417817.83,18722,4.0,72698.0,-14.91,-16.09,-15.99,0,*69
1512417819.07,18723,4.0,72706.3,-14.91,-15.95,-15.95,0,*62
1512417820.34,18724,4.0,72700.5,-14.93,-15.95,-15.85,0,*66
1512417821.57,18725,4.0,72698.8,-14.91,-15.99,-15.99,0,*64
1512417822.83,18726,4.0,72692.5,-14.93,-16.09,-15.99,0,*6F
1512417824.06,18727,4.0,72692.5,-14.91,-15.99,-15.99,0,*66
1512417825.3,18728,4.0,72698.5,-14.93,-15.95,-15.99,0,*67
1512417826.53,18729,4.0,72708.5,-14.91,-15.99,-15.99,0,*68
1512417827.79,18730,4.0,72718.3,-14.91,-16.09,-15.99,0,*6A
1512417829.09,18731,4.0,72718.5,-14.91,-16.09,-16.09,0,*61
1512417830.38,18732,4.0,72710.3,-14.93,-16.09,-16.13,0,*6B
1512417831.68,18733,4.0,72704.8,-14.91,-16.13,-16.09,0,*68
1512417832.91,18734,4.0,72702.0,-14.91,-15.99,-15.99,0,*64
1512417834.14,18735,4.0,72700.0,-14.93,-15.95,-15.99,0,*6B
1512417835.38,18736,4.0,72698.8,-14.91,-15.95,-15.95,0,*66
1512417836.62,18737,4.0,72698.0,-14.93,-15.95,-15.95,0,*65
1512417837.91,18738,4.0,72700.0,-14.91,-15.85,-15.85,0,*68
1512417839.15,18739,4.0,72700.0,-14.91,-15.95,-15.95,0,*69
1512417840.44,18740,4.0,72702.5,-14.93,-15.85,-15.85,0,*65
1512417841.73,18741,4.0,72702.8,-14.93,-15.85,-15.85,0,*64
1512417843.02,18742,4.0,72694.5,-14.91,-15.85,-15.85,0,*65
1512417844.26,18743,4.0,72684.5,-14.91,-15.95,-15.95,0,*64
1512417845.55,18744,4.0,72680.3,-14.93,-15.85,-15.85,0,*61
1512417846.84,18745,4.0,72682.3,-14.91,-15.85,-15.85,0,*62
1512417848.13,18746,4.0,72688.0,-14.91,-15.85,-15.85,0,*61
1512417849.42,18747,4.0,72692.5,-14.91,-15.85,-15.85,0,*60
1512417850.71,18748,4.0,72690.3,-14.91,-15.85,-15.85,0,*6F
1512417852.0,18749,4.0,72688.8,-14.93,-15.85,-15.85,0,*6C
1512417853.29,18750,4.0,72690.5,-14.91,-15.85,-15.85,0,*66
1512417854.56,18751,4.0,72694.8,-14.91,-15.85,-15.95,0,*66
1512417855.8,18752,4.0,72704.5,-14.91,-15.95,-15.95,0,*64
1512417857.09,18753,4.0,72716.3,-14.91,-15.85,-15.85,0,*65
1512417858.32,18754,4.0,72714.8,-14.91,-15.99,-15.99,0,*62
1512417859.56,18755,4.0,72714.8,-14.91,-15.95,-15.95,0,*63
1512417860.85,18756,4.0,72714.3,-14.91,-15.85,-15.85,0,*60
1512417862.14,18757,4.0,72714.5,-14.91,-15.85,-15.85,0,*61
1512417863.4,18758,4.0,72714.0,-14.93,-15.95,-15.85,0,*6D
1512417864.69,18759,4.0,72712.0,-14.93,-15.85,-15.85,0,*6D
1512417865.98,18760,4.0,72708.5,-14.91,-15.81,-15.81,0,*65
1512417867.27,18761,4.0,72708.3,-14.91,-15.85,-15.81,0,*60
1512417868.57,18762,4.0,72710.3,-14.91,-15.85,-15.85,0,*67
1512417869.86,18763,4.0,72712.8,-14.91,-15.85,-15.85,0,*66
1512417871.15,18764,4.0,72718.0,-14.91,-15.85,-15.85,0,*61
1512417872.39,18765,4.0,72708.8,-14.89,-15.95,-16.09,0,*6F
1512417873.61,18766,4.0,72706.5,-14.89,-15.95,-16.03,0,*66
1512417874.85,18767,4.0,72714.8,-14.89,-15.89,-16.03,0,*6A
1512417876.07,18768,4.0,72712.8,-14.89,-16.03,-16.03,0,*64
1512417877.28,18769,4.0,72714.3,-14.89,-16.03,-16.03,0,*65
1512417878.51,18770,4.0,72718.0,-14.91,-15.99,-15.99,0,*64
1512417879.8,18771,4.0,72714.5,-14.91,-16.23,-16.23,0,*65
1512417881.03,18772,4.0,72708.5,-14.91,-16.37,-16.37,0,*66
1512417882.32,18773,4.0,72700.0,-14.91,-16.23,-16.27,0,*63
1512417883.61,18774,4.0,72702.3,-14.91,-16.23,-16.27,0,*64
1512417884.87,18775,4.0,72694.8,-14.91,-16.37,-16.23,0,*64
1512417886.11,18776,4.0,72692.3,-14.93,-16.41,-16.37,0,*61
1512417887.37,18777,4.0,72694.5,-14.91,-16.51,-16.55,0,*67
1512417888.63,18778,4.0,72680.8,-14.91,-16.55,-16.51,0,*68
1512417889.87,18779,4.0,72670.5,-14.91,-16.37,-16.41,0,*6C
1512417891.12,18780,4.0,72632.5,-14.91,-16.41,-16.41,0,*6B
1512417892.35,18781,4.0,72638.8,-14.93,-16.41,-16.37,0,*69
1512417893.64,18782,4.0,72644.8,-14.93,-16.27,-16.27,0,*6B
1512417894.88,18783,4.0,72646.0,-14.93,-16.41,-16.41,0,*6A
1512417896.14,18784,4.0,72646.5,-14.93,-16.37,-16.27,0,*6C
1512417897.4,18785,4.0,72664.5,-14.93,-16.37,-16.23,0,*69
1512417898.63,18786,4.0,72670.8,-14.93,-16.37,-16.37,0,*6F
1512417899.92,18787,4.0,72676.8,-14.93,-16.27,-16.23,0,*6A
1512417901.18,18788,4.0,72678.3,-14.93,-16.37,-16.27,0,*60
1512417902.44,18789,4.0,72676.8,-14.95,-16.27,-16.17,0,*65
1512417903.7,18790,4.0,72680.3,-14.95,-16.17,-16.13,0,*6A
1512417904.97,18791,4.0,72686.3,-14.95,-16.13,-16.13,0,*6F
1512417906.17,18792,4.0,72688.3,-14.95,-15.99,-15.99,0,*6C
1512417907.37,18793,4.0,72684.8,-14.95,-15.99,-16.03,0,*6D
1512417908.61,18794,4.0,72678.3,-14.95,-16.13,-16.03,0,*6B
1512417909.87,18795,4.0,72684.3,-14.95,-16.27,-16.17,0,*68
1512417911.13,18796,4.0,72678.5,-14.95,-16.31,-16.17,0,*6C
1512417912.39,18797,4.0,72682.5,-14.95,-16.17,-16.17,0,*69
1512417913.68,18798,4.0,72684.3,-14.93,-16.23,-16.09,0,*68
1512417914.94,18799,4.0,72678.0,-14.95,-16.17,-16.27,0,*64
1512417916.23,18800,4.0,72676.3,-14.93,-16.23,-16.23,0,*6E
1512417917.52,18801,4.0,72674.5,-14.93,-16.13,-16.09,0,*64
1512417918.78,18802,4.0,72684.0,-14.93,-15.99,-16.09,0,*66
1512417919.99,18803,4.0,72688.3,-14.95,-16.03,-16.03,0,*6B
1512417921.25,18804,4.0,72686.8,-14.95,-16.17,-16.13,0,*68
1512417922.51,18805,4.0,72688.5,-14.95,-16.17,-16.13,0,*69
1512417923.78,18806,4.0,72680.8,-14.95,-16.17,-16.17,0,*6E
1512417925.03,18807,4.0,72676.8,-14.95,-16.27,-16.27,0,*6F
1512417926.3,18808,4.0,72670.3,-14.95,-16.27,-16.17,0,*63
1512417927.56,18809,4.0,72674.3,-14.95,-16.17,-16.13,0,*65
1512417928.78,18810,4.0,72668.0,-14.93,-15.99,-15.99,0,*6F
1512417930.02,18811,4.0,72672.8,-14.93,-15.99,-15.95,0,*62
1512417931.28,18812,4.0,72672.3,-14.93,-16.09,-15.99,0,*67
1512417932.52,18813,4.0,72676.3,-14.95,-16.03,-16.13,0,*6B
1512417933.75,18814,4.0,72680.8,-14.95,-16.03,-16.13,0,*6C
1512417934.98,18815,4.0,72684.5,-14.95,-15.99,-15.89,0,*6D
1512417936.27,18816,4.0,72682.5,-14.93,-15.85,-15.85,0,*69
1512417937.53,18817,4.0,72684.0,-14.95,-15.89,-15.89,0,*6E
1512417938.81,18818,4.0,72694.5,-14.93,-15.85,-15.85,0,*67
1512417940.11,18819,4.0,72698.5,-14.91,-15.85,-15.85,0,*64
1512417941.37,18820,4.0,72702.3,-14.93,-15.85,-15.95,0,*6D
1512417942.66,18821,4.0,72708.5,-14.93,-15.85,-15.85,0,*6D
1512417943.95,18822,4.0,72702.8,-14.91,-15.85,-15.85,0,*6C
1512417945.19,18823,4.0,72688.8,-14.93,-15.95,-15.95,0,*6F
1512417946.45,18824,4.0,72686.3,-14.93,-15.95,-15.85,0,*69
1512417947.74,18825,4.0,72680.8,-14.93,-15.85,-15.85,0,*69
1512417949.0,18826,4.0,72656.0,-14.91,-15.95,-15.85,0,*69
1512417950.24,18827,4.0,72672.5,-14.93,-15.95,-15.95,0,*6B
1512417951.53,18828,4.0,72704.3,-14.93,-15.85,-15.85,0,*64
1512417952.8,18829,4.0,72704.0,-14.91,-15.85,-15.95,0,*66
1512417954.09,18830,4.0,72716.3,-14.91,-15.85,-15.85,0,*6F
1512417955.38,18831,4.0,72722.0,-14.93,-15.85,-15.85,0,*6C
1512417956.61,18832,4.0,72716.8,-14.93,-15.95,-15.99,0,*63
1512417957.91,18833,4.0,72712.0,-14.93,-16.09,-16.09,0,*6E
1512417959.2,18834,4.0,72692.0,-14.91,-16.13,-16.09,0,*60
1512417960.46,18835,4.0,72706.5,-14.91,-15.99,-16.13,0,*6B
1512417961.69,18836,4.0,72702.3,-14.91,-15.99,-15.99,0,*69
1512417962.92,18837,4.0,72694.8,-14.91,-15.99,-15.99,0,*68
1512417964.16,18838,4.0,72702.0,-14.93,-15.95,-15.95,0,*65
1512417965.41,18839,4.0,72702.8,-14.93,-15.99,-15.85,0,*69
1512417966.68,18840,4.0,72698.0,-14.91,-15.95,-15.85,0,*69
1512417967.92,18841,4.0,72702.5,-14.91,-15.95,-15.95,0,*69
1512417969.18,18842,4.0,72700.3,-14.93,-15.95,-15.85,0,*69
1512417970.42,18843,4.0,72714.0,-14.93,-15.95,-15.95,0,*69
1512417971.66,18844,4.0,72708.3,-14.93,-15.95,-15.95,0,*6E
1512417972.92,18845,4.0,72706.3,-14.91,-15.95,-15.85,0,*6C
1512417974.19,18846,4.0,72700.8,-14.91,-15.95,-15.85,0,*6F
1512417975.45,18847,4.0,72698.8,-14.91,-15.95,-15.85,0,*6E
1512417976.72,18848,4.0,72704.3,-14.93,-15.85,-15.95,0,*63
1512417978.01,18849,4.0,72702.8,-14.93,-15.85,-15.85,0,*63
1512417979.29,18850,4.0,72700.5,-14.93,-15.85,-15.85,0,*6B
1512417980.56,18851,4.0,72706.5,-14.93,-15.95,-15.81,0,*6F
1512417981.82,18852,4.0,72708.5,-14.93,-15.95,-15.85,0,*68
1512417983.09,18853,4.0,72704.8,-14.91,-15.95,-15.85,0,*6B
1512417984.38,18854,4.0,72708.3,-14.91,-15.85,-15.85,0,*6D
1512417985.67,18855,4.0,72710.3,-14.91,-15.81,-15.81,0,*6C
1512417986.96,18856,4.0,72688.8,-14.91,-15.85,-15.85,0,*6F
1512417988.22,18857,4.0,72686.5,-14.91,-15.95,-15.85,0,*6F
1512417989.51,18858,4.0,72688.5,-14.91,-15.85,-15.85,0,*61
1512417990.81,18859,4.0,72704.0,-14.91,-15.85,-15.85,0,*60
1512417992.07,18860,4.0,72704.8,-14.91,-15.85,-15.95,0,*6B
1512417993.3,18861,4.0,72700.5,-14.91,-15.99,-15.95,0,*67
1512417994.54,18862,4.0,72694.5,-14.91,-15.95,-15.95,0,*68
1512417995.83,18863,4.0,72702.8,-14.93,-15.85,-15.85,0,*6B
1512417997.12,18864,4.0,72706.5,-14.91,-15.85,-15.85,0,*6E
1512417998.41,18865,4.0,72698.8,-14.93,-15.85,-15.85,0,*6D
1512417999.65,18866,4.0,72708.3,-14.91,-15.95,-15.95,0,*6C
1512418000.88,18867,4.0,72718.5,-14.91,-15.99,-15.99,0,*6D
1512418002.17,18868,4.0,72712.8,-14.93,-16.09,-16.13,0,*6B
1512418003.46,18869,4.0,72708.5,-14.91,-16.23,-16.27,0,*67
1512418004.75,18870,4.0,72710.5,-14.91,-16.27,-16.27,0,*6B
1512418006.01,18871,4.0,72712.0,-14.93,-16.37,-16.23,0,*6D
1512418007.27,18872,4.0,72718.5,-14.91,-16.27,-16.37,0,*68
1512418008.53,18873,4.0,72718.0,-14.91,-16.37,-16.27,0,*69
1512418009.82,18874,4.0,72712.8,-14.91,-16.27,-16.27,0,*6F
1512418011.1,18875,4.0,72716.5,-14.91,-16.27,-16.23,0,*6A
1512418012.39,18876,4.0,72714.3,-14.91,-16.27,-16.23,0,*69
1512418013.67,18877,4.0,72712.8,-14.93,-16.23,-16.27,0,*6A
1512418014.94,18878,4.0,72714.8,-14.91,-16.37,-16.27,0,*62
1512418016.22,18879,4.0,72716.0,-14.91,-16.27,-16.23,0,*66
1512418017.48,18880,4.0,72712.8,-14.91,-16.27,-16.37,0,*65
1512418018.72,18881,4.0,72710.3,-14.93,-16.41,-16.37,0,*66
1512418020.0,18882,4.0,72712.3,-14.93,-16.27,-16.23,0,*60
1512418021.29,18883,4.0,72710.8,-14.91,-16.23,-16.13,0,*64
1512418022.58,18884,4.0,72710.8,-14.91,-16.13,-16.13,0,*60
1512418023.84,18885,4.0,72708.3,-14.93,-16.23,-15.99,0,*61
1512418025.13,18886,4.0,72712.5,-14.91,-16.23,-16.09,0,*6A
1512418026.42,18887,4.0,72710.0,-14.91,-16.23,-16.13,0,*60
1512418027.71,18888,4.0,72712.5,-14.91,-16.13,-16.23,0,*6F
1512418028.97,18889,4.0,72712.5,-14.91,-16.37,-16.23,0,*68
1512418030.26,18890,4.0,72712.8,-14.91,-16.23,-16.13,0,*66
1512418031.52,18891,4.0,72712.3,-14.91,-16.27,-16.37,0,*65
1512418032.81,18892,4.0,72714.5,-14.91,-16.27,-16.27,0,*67
1512418034.05,18893,4.0,72714.0,-14.93,-16.37,-16.41,0,*65
1512418035.29,18894,4.0,72712.8,-14.93,-16.41,-16.41,0,*63
1512418036.55,18895,4.0,72710.5,-14.91,-16.51,-16.41,0,*61
1512418037.79,18896,4.0,72714.3,-14.91,-16.37,-16.37,0,*63
1512418039.07,18897,4.0,72708.5,-14.93,-16.27,-16.27,0,*60
1512418040.33,18898,4.0,72712.3,-14.93,-16.37,-16.23,0,*6A
1512418041.62,18899,4.0,72720.0,-14.91,-16.13,-16.23,0,*6F
1512418042.91,18900,4.0,72722.3,-14.91,-16.27,-16.23,0,*69
1512418044.14,18901,4.0,72728.5,-14.93,-16.37,-16.41,0,*6F
1512418045.38,18902,4.0,72714.3,-14.93,-16.41,-16.37,0,*6C
1512418046.67,18903,4.0,72704.0,-14.93,-16.13,-16.13,0,*6C
1512418047.96,18904,4.0,72706.3,-14.93,-16.13,-16.13,0,*6B
1512418049.26,18905,4.0,72708.5,-14.91,-16.13,-16.13,0,*68
1512418050.51,18906,4.0,72712.0,-14.93,-15.99,-16.13,0,*68
1512418051.81,18907,4.0,72714.8,-14.91,-16.09,-16.09,0,*6A
1512418053.07,18908,4.0,72716.5,-14.93,-16.09,-15.99,0,*6D
1512418054.35,18909,4.0,72710.8,-14.91,-16.09,-15.95,0,*62
1512418055.57,18910,4.0,72712.5,-14.93,-15.99,-15.99,0,*6E
1512418056.81,18911,4.0,72714.0,-14.91,-15.99,-15.95,0,*61
1512418058.07,18912,4.0,72712.0,-14.91,-15.99,-16.09,0,*64
1512418059.33,18913,4.0,72716.3,-14.93,-16.09,-15.99,0,*67
1512418060.56,18914,4.0,72714.8,-14.93,-15.99,-15.99,0,*6A
1512418061.85,18915,4.0,72718.8,-14.93,-16.09,-16.13,0,*60
1512418063.15,18916,4.0,72716.5,-14.93,-16.09,-16.09,0,*68
1512418064.38,18917,3.94,72716.5,-14.91,-15.95,-15.99,0,*67
1512418065.61,18918,4.0,72712.5,-14.93,-15.99,-15.99,0,*66
1512418066.84,18919,4.0,72714.8,-14.93,-15.95,-15.99,0,*6B
1512418068.11,18920,4.0,72728.5,-14.93,-16.09,-15.99,0,*67
1512418069.34,18921,4.0,72724.5,-14.93,-15.99,-15.99,0,*6C
1512418070.63,18922,4.0,72724.5,-14.91,-16.13,-16.09,0,*66
1512418071.89,18923,4.0,72726.3,-14.93,-15.99,-15.85,0,*63
1512418073.16,18924,4.0,72726.8,-14.93,-16.09,-15.95,0,*6F
1512418074.45,18925,4.0,72724.5,-14.93,-16.09,-16.09,0,*68
1512418075.75,18926,4.0,72718.5,-14.93,-16.13,-16.09,0,*60
1512418077.01,18927,4.0,72718.8,-14.93,-16.09,-15.99,0,*60
1512418078.28,18928,4.0,72712.3,-14.93,-16.09,-15.99,0,*6F
1512418079.54,18929,4.0,72710.8,-14.91,-16.09,-15.99,0,*6C
1512418080.78,18930,4.0,72710.0,-14.93,-15.99,-15.95,0,*60
1512418082.01,18931,4.0,72712.3,-14.93,-15.99,-15.95,0,*61
1512418083.3,18932,4.0,72710.5,-14.93,-16.13,-16.09,0,*65
1512418084.6,18933,4.0,72716.8,-14.91,-16.09,-16.09,0,*6D
1512418085.83,18934,4.0,72716.0,-14.93,-15.95,-15.99,0,*64
1512418087.06,18935,4.0,72708.5,-14.93,-15.99,-15.99,0,*69
1512418088.36,18936,4.0,72704.0,-14.91,-16.09,-16.13,0,*63
1512418089.62,18937,4.0,72712.8,-14.93,-16.09,-15.99,0,*61
1512418090.88,18938,4.0,72712.0,-14.93,-15.99,-16.09,0,*6E
1512418092.17,18939,4.0,72718.5,-14.91,-16.13,-16.23,0,*64
1512418093.45,18940,4.0,72722.0,-14.93,-16.23,-16.27,0,*6F
1512418094.71,18941,4.0,72710.0,-14.91,-16.27,-16.37,0,*69
1512418095.97,18942,4.0,72704.8,-14.93,-16.27,-16.37,0,*68
1512418097.23,18943,3.94,72706.8,-14.91,-16.37,-16.27,0,*6B
1512418098.49,18944,4.0,72708.0,-14.91,-16.27,-16.37,0,*6C
1512418099.76,18945,4.0,72714.5,-14.93,-16.27,-16.41,0,*6E
1512418101.0,18946,4.0,72708.8,-14.93,-16.55,-16.41,0,*68
1512418102.24,18947,4.0,72702.8,-14.91,-16.41,-16.41,0,*6E
1512418103.48,18948,4.0,72700.5,-14.91,-16.37,-16.37,0,*61
1512418104.74,18949,4.0,72706.8,-14.91,-16.55,-16.51,0,*64
1512418106.0,18950,4.0,72708.3,-14.93,-16.51,-16.55,0,*6E
1512418107.26,18951,4.0,72710.3,-14.93,-16.51,-16.55,0,*6F
1512418108.53,18952,4.0,72706.3,-14.93,-16.65,-16.55,0,*6B
1512418109.79,18953,4.0,72708.3,-14.93,-16.55,-16.69,0,*66
1512418111.07,18954,4.0,72704.8,-14.93,-16.51,-16.51,0,*6E
1512418112.33,18955,3.94,72706.3,-14.93,-16.37,-16.27,0,*6E
1512418113.63,18956,4.0,72714.8,-14.97,-16.17,-16.17,0,*68